Regional Weather Roundup
Issued by NWS State College, PA

Home | Current Version | Previous Version | Text Only | Print | Product List | Glossary On
Versions: 1 2 3 4 5 6 7 8 9 10 11 12 13 14 15 16 17 18 19 20 21 22 23 24 25 26 27 28 29 30 31 32 33 34 35 36 37 38 39 40 41 42 43 44 45 46 47 48 49 50
000
ASUS41 KCTP 301203
RWRCTP

REGIONAL WEATHER ROUNDUP
NATIONAL WEATHER SERVICE STATE COLLEGE PA
800 AM EDT SAT AUG 30 2014

Note: "fair" indicates few or no clouds below 12,000 feet with no
significant weather and/or obstructions to visibility.

* = STATION THAT DOES NOT REPORT PRECIPITATION /E.G. RAIN...SNOW...ETC/
    THUNDER OR FOG.

PAZ002>004-007>009-013>016-020>023-029>032-301300-
WESTERN PENNSYLVANIA

CITY           SKY/WX    TMP DP  RH WIND       PRES   REMARKS
ERIE           MOSUNNY   69  56  62 S14       30.06S
MEADVILLE      SUNNY     64  57  78 VRB5      30.12S
FRANKLIN*      SUNNY     63  55  77 S7        30.15S
NEW CASTLE     FAIR      65  60  83 CALM      30.13R
BEAVER COUNTY  NOT AVBL
BUTLER*        SUNNY     64  57  77 SE5       30.16R
PITTSBURGH INT PTSUNNY   66  61  84 SE7       30.13R
PITTSBURGH     MOSUNNY   65  60  84 S7        30.13S
INDIANA*       SUNNY     66  61  82 SE5       30.21R
LATROBE        SUNNY     63  63 100 CALM      30.16R
WASHINGTON CO* SUNNY     64  63  94 CALM      30.14S
$$

PAZ004>006-010>012-017>019-024>028-033>037-041-042-045-046-049>053-301300-
CENTRAL PENNSYLVANIA

CITY           SKY/WX    TMP DP  RH WIND       PRES   REMARKS
BRADFORD       SUNNY     60  54  80 SE8       30.18S
DUBOIS         SUNNY     61  56  83 SE8       30.17S
CLEARFIELD     SUNNY     56  54  93 N5        30.21R
JOHNSTOWN      SUNNY     63  58  83 S9        30.22R
ALTOONA        MOSUNNY   63  58  83 CALM      30.23R
STATE COLLEGE  SUNNY     61  55  82 CALM      30.22R
WILLIAMSPORT   CLOUDY    63  56  78 NE6       30.21S
SELINSGROVE    CLOUDY    60  58  92 CALM      30.23S
FT INDIANTOWN  CLOUDY    62  61  99 VRB5      30.26S
CAPITAL CITY   CLOUDY    63  59  87 E6        30.24S
HARRISBURG     CLOUDY    64  60  87 E6        30.23S
YORK           CLOUDY    66  63  90 CALM      30.23F
$$

PAZ038>040-043-044-047-048-054-055-060>062-067>071-301300-
EASTERN PENNSYLVANIA

CITY           SKY/WX    TMP DP  RH WIND       PRES   REMARKS
SCRANTON       CLOUDY    64  57  78 CALM      30.26R
MOUNT POCONO   PTSUNNY   58  55  90 S5        30.29R
ALLENTOWN      CLOUDY    61  56  83 E3        30.27S
QUAKERTOWN*    CLOUDY    59  57  94 CALM      30.28S
READING        CLOUDY    62  58  86 CALM      30.26S
LANCASTER      CLOUDY    61  58  90 E5        30.25S
COATESVILLE    CLOUDY    61  61 100 E3        30.28R
POTTSTOWN      PTSUNNY   59  57  93 CALM      30.29R
BLUE BELL      PTSUNNY   61  59  94 CALM      30.26F
DOYLESTOWN     SUNNY     57  56  96 CALM      30.27S
WILLOW GROVE   NOT AVBL
NORTH PHILA    SUNNY     65  57  75 CALM      30.29R
PHILADELPHIA   PTSUNNY   66  59  78 E3        30.27R
$$



USA.gov is the U.S. government's official web portal to all federal, state and local government web resources and services.